ASA286 KSEA-KEWR

Flight info

Callsign ASA286
Flight time 4h 40m
Altitude 35000
Route MONTN2 SEA ZADON ZELAK ZIRAN ZAXBY BLOWS KU12U KP06C GEP/N0466F370 ODI KG78K KG72M EVOTE NELLS KEEHO J584 SLT FQM3
Aircraft B38M/M-SDE1FGHILORVWXY/HB1

Departure

Time 2026-04-24 15:14
Airport Seattle–Tacoma International Airport (KSEA)

Arrival

Time 2026-04-24 19:55
Airport Newark Liberty International Airport (KEWR)
Time Latitude Longitude Altitude Speed Heading
2026-04-24 14:54 47.44815 -122.30312 412 ft 0 kts 41°
2026-04-24 15:08 47.44801 -122.30328 407 ft 4 kts 32°
2026-04-24 15:08 47.44778 -122.30342 406 ft 4 kts 358°
2026-04-24 15:09 47.44761 -122.30331 410 ft 1 kts 310°
2026-04-24 15:11 47.44763 -122.30336 410 ft 3 kts 310°
2026-04-24 15:11 47.44805 -122.30409 409 ft 14 kts 310°
2026-04-24 15:11 47.44811 -122.30561 405 ft 17 kts 255°
2026-04-24 15:12 47.44709 -122.30630 405 ft 19 kts 181°
2026-04-24 15:12 47.44336 -122.30635 395 ft 34 kts 182°
2026-04-24 15:12 47.44090 -122.30636 388 ft 36 kts 180°
2026-04-24 15:13 47.43836 -122.30638 381 ft 38 kts 180°
2026-04-24 15:13 47.43651 -122.30646 375 ft 16 kts 201°
2026-04-24 15:13 47.43640 -122.30787 371 ft 16 kts 331°
2026-04-24 15:13 47.43759 -122.30800 376 ft 29 kts
2026-04-24 15:14 47.44213 -122.30795 393 ft 100 kts
2026-04-24 15:14 47.45121 -122.30790 416 ft 158 kts 359°
2026-04-24 15:14 47.46309 -122.30784 825 ft 182 kts 359°
2026-04-24 15:14 47.47647 -122.30790 1517 ft 195 kts
2026-04-24 15:15 47.48988 -122.30819 2463 ft 200 kts
2026-04-24 15:15 47.50473 -122.30884 2974 ft 225 kts
2026-04-24 15:15 47.52094 -122.30968 3720 ft 241 kts
2026-04-24 15:15 47.53795 -122.31059 4687 ft 245 kts
2026-04-24 15:16 47.55504 -122.31079 5729 ft 243 kts 11°
2026-04-24 15:16 47.57042 -122.30182 6833 ft 239 kts 34°
2026-04-24 15:16 47.58260 -122.28448 7701 ft 249 kts 51°
2026-04-24 15:16 47.59022 -122.26124 8652 ft 258 kts 71°
2026-04-24 15:17 47.59122 -122.23408 9515 ft 271 kts 90°
2026-04-24 15:17 47.58961 -122.20597 10347 ft 276 kts 88°
2026-04-24 15:17 47.58812 -122.17680 10868 ft 293 kts 88°
2026-04-24 15:17 47.58655 -122.14566 11216 ft 314 kts 89°
2026-04-24 15:18 47.58486 -122.11237 11531 ft 334 kts 89°
2026-04-24 15:18 47.58303 -122.07704 11793 ft 354 kts 89°
2026-04-24 15:18 47.58105 -122.03976 12080 ft 371 kts 89°
2026-04-24 15:18 47.57888 -122.00111 12564 ft 380 kts 89°
2026-04-24 15:19 47.57652 -121.96189 13254 ft 385 kts 89°
2026-04-24 15:19 47.57405 -121.92207 13875 ft 391 kts 89°
2026-04-24 15:19 47.57149 -121.88168 14466 ft 396 kts 89°
2026-04-24 15:19 47.56888 -121.84103 14991 ft 399 kts 89°
2026-04-24 15:20 47.56623 -121.79983 15553 ft 404 kts 89°
2026-04-24 15:20 47.56352 -121.75824 16119 ft 407 kts 89°
2026-04-24 15:20 47.56240 -121.71649 16653 ft 407 kts 84°
2026-04-24 15:20 47.56191 -121.67481 17181 ft 412 kts 84°
2026-04-24 15:21 47.56127 -121.63225 17818 ft 415 kts 84°
2026-04-24 15:21 47.56051 -121.58946 18428 ft 418 kts 84°
2026-04-24 15:21 47.55974 -121.54615 18784 ft 421 kts 83°
2026-04-24 15:21 47.55917 -121.50281 19279 ft 422 kts 83°
2026-04-24 15:22 47.55857 -121.45908 19713 ft 428 kts 83°
2026-04-24 15:22 47.55793 -121.41487 20178 ft 430 kts 83°
2026-04-24 15:22 47.55729 -121.37046 20597 ft 434 kts 83°
2026-04-24 15:23 47.55587 -121.28034 21530 ft 441 kts 83°
2026-04-24 15:23 47.55432 -121.18907 22333 ft 446 kts 83°
2026-04-24 15:23 47.55359 -121.14301 22696 ft 449 kts 83°
2026-04-24 15:24 47.55112 -121.00326 23862 ft 458 kts 83°
2026-04-24 15:25 47.54965 -120.92448 24394 ft 462 kts 83°
2026-04-24 15:25 47.54747 -120.81283 25173 ft 466 kts 83°
2026-04-24 15:26 47.54449 -120.66797 26178 ft 473 kts 83°
2026-04-24 15:27 47.54125 -120.52037 27140 ft 482 kts 83°
2026-04-24 15:27 47.53847 -120.37217 28314 ft 481 kts 82°
2026-04-24 15:28 47.53548 -120.17472 30019 ft 478 kts 83°
2026-04-24 15:29 47.53384 -120.07584 30720 ft 477 kts 83°
2026-04-24 15:30 47.53127 -119.92970 31660 ft 475 kts 83°
2026-04-24 15:31 47.52786 -119.75063 32759 ft 475 kts 84°
2026-04-24 15:32 47.52349 -119.53952 34136 ft 472 kts 86°
2026-04-24 15:33 47.51912 -119.34561 35090 ft 471 kts 86°
2026-04-24 15:33 47.51565 -119.20035 35238 ft 470 kts 86°
2026-04-24 15:34 47.51323 -119.10395 35262 ft 467 kts 87°
2026-04-24 15:35 47.50688 -118.86386 35227 ft 467 kts 88°
2026-04-24 15:36 47.50465 -118.78397 35234 ft 467 kts 88°
2026-04-24 15:36 47.50049 -118.63998 35218 ft 467 kts 88°
2026-04-24 15:37 47.49762 -118.54393 35217 ft 467 kts 88°
2026-04-24 15:37 47.49467 -118.44799 35194 ft 467 kts 88°
2026-04-24 15:38 47.49166 -118.35269 35196 ft 467 kts 88°
2026-04-24 15:38 47.48855 -118.25680 35180 ft 467 kts 88°
2026-04-24 15:39 47.48535 -118.16074 35180 ft 469 kts 89°
2026-04-24 15:39 47.48207 -118.06421 35157 ft 470 kts 89°
2026-04-24 15:40 47.47870 -117.96769 35149 ft 470 kts 89°
2026-04-24 15:40 47.47525 -117.87117 35136 ft 470 kts 89°
2026-04-24 15:41 47.47174 -117.77465 35135 ft 470 kts 89°
2026-04-24 15:41 47.46815 -117.67805 35152 ft 470 kts 90°
2026-04-24 15:42 47.46324 -117.58170 35147 ft 470 kts 92°
2026-04-24 15:42 47.45689 -117.48547 35145 ft 470 kts 92°
2026-04-24 15:43 47.45065 -117.38942 35145 ft 470 kts 92°
2026-04-24 15:43 47.44434 -117.29324 35153 ft 470 kts 92°
2026-04-24 15:44 47.43795 -117.19720 35196 ft 469 kts 92°
2026-04-24 15:44 47.43158 -117.10256 35191 ft 463 kts 92°
2026-04-24 15:45 47.42513 -117.00784 35187 ft 464 kts 93°
2026-04-24 15:45 47.41859 -116.91313 35183 ft 464 kts 93°
2026-04-24 15:46 47.41197 -116.81835 35192 ft 464 kts 93°
2026-04-24 15:46 47.40527 -116.72360 35183 ft 464 kts 93°
2026-04-24 15:47 47.39851 -116.62907 35169 ft 462 kts 93°
2026-04-24 15:47 47.39169 -116.53494 35163 ft 461 kts 93°
2026-04-24 15:48 47.38479 -116.44072 35161 ft 462 kts 93°
2026-04-24 15:48 47.37783 -116.34660 35153 ft 462 kts 93°
2026-04-24 15:49 47.37078 -116.25244 35141 ft 462 kts 93°
2026-04-24 15:49 47.36366 -116.15842 35144 ft 460 kts 93°
2026-04-24 15:50 47.35648 -116.06471 35127 ft 461 kts 93°
2026-04-24 15:50 47.34921 -115.97081 35121 ft 461 kts 93°
2026-04-24 15:51 47.34186 -115.87682 35115 ft 461 kts 93°
2026-04-24 15:51 47.33444 -115.78295 35131 ft 461 kts 94°
2026-04-24 15:52 47.32697 -115.68956 35138 ft 461 kts 94°
2026-04-24 15:52 47.31941 -115.59593 35118 ft 459 kts 94°
2026-04-24 15:53 47.31180 -115.50263 35127 ft 459 kts 94°
2026-04-24 15:53 47.30410 -115.40922 35136 ft 459 kts 94°
2026-04-24 15:54 47.29629 -115.31546 35121 ft 462 kts 94°
2026-04-24 15:54 47.28839 -115.22144 35130 ft 463 kts 94°
2026-04-24 15:55 47.28044 -115.12747 35140 ft 462 kts 94°
2026-04-24 15:55 47.27241 -115.03350 35129 ft 462 kts 94°
2026-04-24 15:56 47.27020 -114.94032 35146 ft 459 kts 86°
2026-04-24 15:56 47.27079 -114.84627 35133 ft 458 kts 86°
2026-04-24 15:57 47.27148 -114.75235 35137 ft 459 kts 86°
2026-04-24 15:57 47.27212 -114.65847 35123 ft 458 kts 86°
2026-04-24 15:58 47.27267 -114.56470 35141 ft 458 kts 86°
2026-04-24 15:58 47.27316 -114.47041 35135 ft 462 kts 86°
2026-04-24 15:59 47.27356 -114.37595 35138 ft 461 kts 86°
2026-04-24 15:59 47.27389 -114.28145 35152 ft 462 kts 86°
2026-04-24 16:00 47.27414 -114.18749 35151 ft 462 kts 86°
2026-04-24 16:00 47.27432 -114.09297 35155 ft 462 kts 86°
2026-04-24 16:01 47.27441 -113.99835 35140 ft 462 kts 87°
2026-04-24 16:01 47.27443 -113.90374 35147 ft 462 kts 87°
2026-04-24 16:02 47.27437 -113.80907 35166 ft 462 kts 87°
2026-04-24 16:02 47.27423 -113.71445 35134 ft 462 kts 87°
2026-04-24 16:03 47.27402 -113.61977 35132 ft 462 kts 87°
2026-04-24 16:03 47.27372 -113.52500 35129 ft 463 kts 87°
2026-04-24 16:04 47.27335 -113.42960 35131 ft 468 kts 87°
2026-04-24 16:04 47.27289 -113.33383 35123 ft 468 kts 88°
2026-04-24 16:05 47.27206 -113.19010 35117 ft 468 kts 88°
2026-04-24 16:06 47.27104 -113.04639 35126 ft 468 kts 88°
2026-04-24 16:07 47.26985 -112.90325 35123 ft 468 kts 88°
2026-04-24 16:07 47.26848 -112.75938 35114 ft 468 kts 88°
2026-04-24 16:08 47.26693 -112.61546 35110 ft 469 kts 88°
2026-04-24 16:09 47.26519 -112.47134 35113 ft 472 kts 88°
2026-04-24 16:09 47.26392 -112.37448 35109 ft 473 kts 89°
2026-04-24 16:11 47.26040 -112.13285 35112 ft 473 kts 89°
2026-04-24 16:11 47.25884 -112.03595 35121 ft 473 kts 89°
2026-04-24 16:12 47.25636 -111.89034 35118 ft 475 kts 88°
2026-04-24 16:13 47.25367 -111.74451 35111 ft 475 kts 88°
2026-04-24 16:14 47.24982 -111.55001 35101 ft 475 kts 89°
2026-04-24 16:14 47.24668 -111.40340 35086 ft 481 kts 89°
2026-04-24 16:15 47.24335 -111.25603 35083 ft 482 kts 88°
2026-04-24 16:16 47.23981 -111.10807 35103 ft 482 kts 89°
2026-04-24 16:17 47.23346 -110.86066 35099 ft 485 kts 89°
2026-04-24 16:18 47.22800 -110.66259 35096 ft 484 kts 89°
2026-04-24 16:19 47.22368 -110.51404 35079 ft 484 kts 89°
2026-04-24 16:20 47.21915 -110.36490 35058 ft 488 kts 90°
2026-04-24 16:20 47.21440 -110.21529 35063 ft 489 kts 90°
2026-04-24 16:21 47.20947 -110.06583 35059 ft 488 kts 90°
2026-04-24 16:22 47.20608 -109.96623 35048 ft 487 kts 90°
2026-04-24 16:22 47.20084 -109.81756 35058 ft 488 kts 91°
2026-04-24 16:23 47.19722 -109.71790 35048 ft 488 kts 90°
2026-04-24 16:24 47.19164 -109.56821 35043 ft 489 kts 91°
2026-04-24 16:24 47.18779 -109.46845 35035 ft 488 kts 91°
2026-04-24 16:25 47.18386 -109.36858 35050 ft 489 kts 91°
2026-04-24 16:25 47.17985 -109.26860 35037 ft 491 kts 91°
2026-04-24 16:26 47.17365 -109.11854 35019 ft 490 kts 91°
2026-04-24 16:27 47.16799 -108.98539 35024 ft 491 kts 92°
2026-04-24 16:27 47.16363 -108.88536 34998 ft 492 kts 91°
2026-04-24 16:28 47.15918 -108.78513 34980 ft 492 kts 92°
2026-04-24 16:28 47.15236 -108.63530 34987 ft 492 kts 92°
2026-04-24 16:29 47.14767 -108.53498 34977 ft 491 kts 92°
2026-04-24 16:30 47.13802 -108.33361 34995 ft 498 kts 93°
2026-04-24 16:30 47.13303 -108.23238 34976 ft 498 kts 93°
2026-04-24 16:31 47.12794 -108.13115 34971 ft 496 kts 92°
2026-04-24 16:31 47.12277 -108.02982 34999 ft 497 kts 92°
2026-04-24 16:32 47.11751 -107.92854 35001 ft 499 kts 93°
2026-04-24 16:32 47.11217 -107.82748 34979 ft 497 kts 93°
2026-04-24 16:33 47.10672 -107.72633 34982 ft 496 kts 93°
2026-04-24 16:33 47.10123 -107.62583 35001 ft 497 kts 93°
2026-04-24 16:34 47.09563 -107.52466 34998 ft 498 kts 93°
2026-04-24 16:34 47.08991 -107.42342 34975 ft 498 kts 93°
2026-04-24 16:35 47.08410 -107.32204 34986 ft 497 kts 94°
2026-04-24 16:35 47.07820 -107.22067 35003 ft 500 kts 94°
2026-04-24 16:36 47.07221 -107.11927 34988 ft 500 kts 94°
2026-04-24 16:36 47.06612 -107.01796 34983 ft 498 kts 94°
2026-04-24 16:37 47.05994 -106.91653 34995 ft 498 kts 94°
2026-04-24 16:37 47.05371 -106.81525 34991 ft 500 kts 95°
2026-04-24 16:38 47.04739 -106.71386 34972 ft 500 kts 94°
2026-04-24 16:38 47.04103 -106.61313 34986 ft 498 kts 95°
2026-04-24 16:39 47.03453 -106.51190 34998 ft 499 kts 95°
2026-04-24 16:39 47.02798 -106.41091 34983 ft 499 kts 95°
2026-04-24 16:40 47.02132 -106.30960 34976 ft 499 kts 95°
2026-04-24 16:40 47.01457 -106.20824 34996 ft 499 kts 96°
2026-04-24 16:41 47.00774 -106.10697 34988 ft 500 kts 96°
2026-04-24 16:41 47.00063 -106.00593 34981 ft 499 kts 98°
2026-04-24 16:42 46.99116 -105.90508 34983 ft 498 kts 97°
2026-04-24 16:42 46.98208 -105.80427 34986 ft 501 kts 97°
2026-04-24 16:43 46.97296 -105.70352 34968 ft 499 kts 98°
2026-04-24 16:43 46.96374 -105.60247 34982 ft 499 kts 98°
2026-04-24 16:44 46.95444 -105.50157 34966 ft 502 kts 98°
2026-04-24 16:44 46.94504 -105.40064 34964 ft 499 kts 98°
2026-04-24 16:45 46.93555 -105.29970 34980 ft 500 kts 98°
2026-04-24 16:45 46.92599 -105.19910 34970 ft 500 kts 98°
2026-04-24 16:46 46.91636 -105.09862 34959 ft 497 kts 99°
2026-04-24 16:46 46.90663 -104.99801 34969 ft 500 kts 98°
2026-04-24 16:47 46.89687 -104.89821 34963 ft 500 kts 99°
2026-04-24 16:47 46.88696 -104.79762 34973 ft 497 kts 99°
2026-04-24 16:48 46.87702 -104.69771 34971 ft 497 kts 99°
2026-04-24 16:48 46.86701 -104.59796 34965 ft 496 kts 99°
2026-04-24 16:49 46.85687 -104.49789 34977 ft 498 kts 99°
2026-04-24 16:49 46.84665 -104.39788 34977 ft 499 kts 100°
2026-04-24 16:50 46.83631 -104.29759 34976 ft 499 kts 100°
2026-04-24 16:50 46.82585 -104.19710 34980 ft 500 kts 100°
2026-04-24 16:51 46.81533 -104.09692 34965 ft 500 kts 100°
2026-04-24 16:51 46.80471 -103.99658 34969 ft 499 kts 100°
2026-04-24 16:52 46.79402 -103.89643 34960 ft 499 kts 101°
2026-04-24 16:52 46.78326 -103.79654 34956 ft 498 kts 101°
2026-04-24 16:53 46.77241 -103.69661 34952 ft 498 kts 101°
2026-04-24 16:53 46.76154 -103.59745 34946 ft 499 kts 101°
2026-04-24 16:54 46.75051 -103.49756 34940 ft 499 kts 101°
2026-04-24 16:54 46.73940 -103.39778 34938 ft 498 kts 101°
2026-04-24 16:55 46.72821 -103.29808 34937 ft 498 kts 101°
2026-04-24 16:55 46.71694 -103.19852 34928 ft 498 kts 101°
2026-04-24 16:56 46.70558 -103.09901 34908 ft 498 kts 102°
2026-04-24 16:56 46.69414 -102.99949 34900 ft 497 kts 102°
2026-04-24 16:57 46.68263 -102.90021 34895 ft 497 kts 102°
2026-04-24 16:57 46.67104 -102.80099 34887 ft 497 kts 102°
2026-04-24 16:58 46.65936 -102.70182 34892 ft 497 kts 102°
2026-04-24 16:58 46.64759 -102.60266 34897 ft 496 kts 102°
2026-04-24 16:59 46.63585 -102.50450 34909 ft 495 kts 103°
2026-04-24 17:00 46.61799 -102.35659 34926 ft 495 kts 103°
2026-04-24 17:00 46.59995 -102.20875 34931 ft 495 kts 103°
2026-04-24 17:01 46.58176 -102.06141 34932 ft 493 kts 103°
2026-04-24 17:02 46.56341 -101.91441 34937 ft 493 kts 103°
2026-04-24 17:02 46.55107 -101.81646 34935 ft 493 kts 104°
2026-04-24 17:03 46.53237 -101.66936 34939 ft 493 kts 104°
2026-04-24 17:04 46.51980 -101.57137 34938 ft 493 kts 104°
2026-04-24 17:04 46.50081 -101.42453 34943 ft 493 kts 104°
2026-04-24 17:05 46.48804 -101.32671 34936 ft 493 kts 104°
2026-04-24 17:06 46.46876 -101.18030 34944 ft 492 kts 104°
2026-04-24 17:06 46.44940 -101.03474 34946 ft 492 kts 105°
2026-04-24 17:07 46.43632 -100.93727 34937 ft 492 kts 105°
2026-04-24 17:08 46.40994 -100.74267 34946 ft 491 kts 105°
2026-04-24 17:08 46.39665 -100.64560 34941 ft 491 kts 105°
2026-04-24 17:09 46.36981 -100.45148 34925 ft 491 kts 106°
2026-04-24 17:10 46.34279 -100.25860 34949 ft 490 kts 107°
2026-04-24 17:12 46.28759 -99.87220 34935 ft 490 kts 107°
2026-04-24 18:54 41.93222 -82.96206 36839 ft 485 kts 89°
2026-04-24 18:55 41.93104 -82.82603 36858 ft 486 kts 89°
2026-04-24 18:56 41.93018 -82.73535 36873 ft 484 kts 89°
2026-04-24 18:56 41.92924 -82.64511 36872 ft 483 kts 89°
2026-04-24 18:57 41.92823 -82.55482 36876 ft 483 kts 89°
2026-04-24 18:57 41.92716 -82.46515 36875 ft 483 kts 89°
2026-04-24 18:58 41.92601 -82.37493 36886 ft 483 kts 88°
2026-04-24 18:58 41.92479 -82.28474 36874 ft 483 kts 88°
2026-04-24 18:59 41.92350 -82.19450 36880 ft 483 kts 88°
2026-04-24 18:59 41.92214 -82.10429 36875 ft 483 kts 88°
2026-04-24 19:00 41.92071 -82.01406 36887 ft 483 kts 88°
2026-04-24 19:00 41.91922 -81.92360 36892 ft 486 kts 88°
2026-04-24 19:01 41.91728 -81.83293 36882 ft 487 kts 92°
2026-04-24 19:01 41.90979 -81.74248 36889 ft 488 kts 94°
2026-04-24 19:02 41.90179 -81.65202 36899 ft 488 kts 94°
2026-04-24 19:02 41.89372 -81.56170 36874 ft 487 kts 94°
2026-04-24 19:03 41.88558 -81.47156 36873 ft 487 kts 94°
2026-04-24 19:03 41.87736 -81.38133 36871 ft 487 kts 94°
2026-04-24 19:04 41.86908 -81.29118 36875 ft 487 kts 94°
2026-04-24 19:04 41.86071 -81.20083 36873 ft 489 kts 93°
2026-04-24 19:05 41.85230 -81.11090 36866 ft 488 kts 93°
2026-04-24 19:05 41.84379 -81.02064 36867 ft 488 kts 93°
2026-04-24 19:06 41.83520 -80.93042 36862 ft 488 kts 94°
2026-04-24 19:06 41.82654 -80.84007 36862 ft 489 kts 93°
2026-04-24 19:07 41.81779 -80.74961 36859 ft 489 kts 93°
2026-04-24 19:07 41.81047 -80.67446 36862 ft 489 kts 93°
2026-04-24 19:08 41.80007 -80.56869 36859 ft 489 kts 93°
2026-04-24 19:08 41.79110 -80.47828 36862 ft 490 kts 92°
2026-04-24 19:09 41.78205 -80.38783 36856 ft 490 kts 93°
2026-04-24 19:09 41.77293 -80.29738 36857 ft 490 kts 93°
2026-04-24 19:10 41.76374 -80.20696 36860 ft 490 kts 93°
2026-04-24 19:10 41.75454 -80.11714 36861 ft 491 kts 92°
2026-04-24 19:11 41.74517 -80.02639 36858 ft 493 kts 92°
2026-04-24 19:11 41.73571 -79.93553 36855 ft 493 kts 92°
2026-04-24 19:12 41.72619 -79.84474 36848 ft 493 kts 93°
2026-04-24 19:12 41.71659 -79.75394 36859 ft 493 kts 93°
2026-04-24 19:13 41.70853 -79.67831 36836 ft 494 kts 93°
2026-04-24 19:13 41.69712 -79.57188 36835 ft 494 kts 93°
2026-04-24 19:14 41.68727 -79.48090 36839 ft 494 kts 93°
2026-04-24 19:14 41.67736 -79.39002 36864 ft 494 kts 93°
2026-04-24 19:15 41.66742 -79.29937 36835 ft 492 kts 93°
2026-04-24 19:15 41.65740 -79.20873 36838 ft 493 kts 94°
2026-04-24 19:16 41.64227 -79.07351 36846 ft 493 kts 94°
2026-04-24 19:16 41.63199 -78.98240 36854 ft 492 kts 94°
2026-04-24 19:17 41.62180 -78.89262 36856 ft 492 kts 94°
2026-04-24 19:17 41.61146 -78.80233 36858 ft 492 kts 94°
2026-04-24 19:18 41.60105 -78.71196 36881 ft 492 kts 94°
2026-04-24 19:18 41.59056 -78.62159 36887 ft 493 kts 94°
2026-04-24 19:19 41.57998 -78.53108 36882 ft 493 kts 94°
2026-04-24 19:19 41.56934 -78.44064 36872 ft 493 kts 94°
2026-04-24 19:20 41.55864 -78.35039 36876 ft 492 kts 94°
2026-04-24 19:20 41.54787 -78.26009 36872 ft 493 kts 94°
2026-04-24 19:21 41.53701 -78.16969 36887 ft 493 kts 94°
2026-04-24 19:21 41.52607 -78.07930 36893 ft 493 kts 94°
2026-04-24 19:22 41.51508 -77.98894 36892 ft 493 kts 95°
2026-04-24 19:22 41.50243 -77.89929 36898 ft 496 kts 96°
2026-04-24 19:23 41.48965 -77.80882 36900 ft 497 kts 96°
2026-04-24 19:23 41.47681 -77.71824 36899 ft 497 kts 96°
2026-04-24 19:24 41.46389 -77.62766 36893 ft 497 kts 96°
2026-04-24 19:24 41.45091 -77.53708 36899 ft 499 kts 96°
2026-04-24 19:25 41.43777 -77.44606 36905 ft 501 kts 96°
2026-04-24 19:25 41.42455 -77.35495 36899 ft 501 kts 96°
2026-04-24 19:26 41.41127 -77.26390 36895 ft 501 kts 96°
2026-04-24 19:26 41.39789 -77.17274 36897 ft 503 kts 96°
2026-04-24 19:27 41.38436 -77.08115 36891 ft 504 kts 96°
2026-04-24 19:27 41.37074 -76.98945 36902 ft 505 kts 96°
2026-04-24 19:28 41.35707 -76.89791 36869 ft 503 kts 96°
2026-04-24 19:28 41.34347 -76.80717 36874 ft 505 kts 96°
2026-04-24 19:29 41.31121 -76.67228 36882 ft 513 kts 105°
2026-04-24 19:29 41.29929 -76.62759 36283 ft 514 kts 105°
2026-04-24 19:30 41.28727 -76.58267 35589 ft 514 kts 105°
2026-04-24 19:30 41.27530 -76.53805 34981 ft 511 kts 104°
2026-04-24 19:30 41.26335 -76.49357 34374 ft 511 kts 104°
2026-04-24 19:30 41.25137 -76.44905 33613 ft 512 kts 104°
2026-04-24 19:31 41.23936 -76.40458 32797 ft 513 kts 104°
2026-04-24 19:31 41.22729 -76.35989 31991 ft 513 kts 104°
2026-04-24 19:31 41.21520 -76.31524 31195 ft 514 kts 105°
2026-04-24 19:31 41.20308 -76.27051 30405 ft 514 kts 105°
2026-04-24 19:32 41.19097 -76.22590 29618 ft 513 kts 105°
2026-04-24 19:32 41.17887 -76.18148 28922 ft 509 kts 105°
2026-04-24 19:32 41.16688 -76.13748 28306 ft 505 kts 105°
2026-04-24 19:32 41.15496 -76.09385 27690 ft 501 kts 105°
2026-04-24 19:33 41.14314 -76.05062 27099 ft 496 kts 105°
2026-04-24 19:33 41.13140 -76.00782 26530 ft 492 kts 106°
2026-04-24 19:33 41.11971 -75.96529 25972 ft 488 kts 106°
2026-04-24 19:33 41.10815 -75.92325 25401 ft 484 kts 107°
2026-04-24 19:34 41.09664 -75.88148 24876 ft 479 kts 107°
2026-04-24 19:34 41.08539 -75.84073 24374 ft 475 kts 107°
2026-04-24 19:34 41.07407 -75.79976 23901 ft 471 kts 107°
2026-04-24 19:34 41.06283 -75.75913 23403 ft 468 kts 107°
2026-04-24 19:35 41.05165 -75.71883 22792 ft 465 kts 107°
2026-04-24 19:35 41.04053 -75.67880 22268 ft 461 kts 107°
2026-04-24 19:35 41.02950 -75.63913 21728 ft 457 kts 107°
2026-04-24 19:35 41.01853 -75.59976 21213 ft 454 kts 107°
2026-04-24 19:36 41.00762 -75.56065 20719 ft 451 kts 107°
2026-04-24 19:36 40.99677 -75.52180 20235 ft 447 kts 108°
2026-04-24 19:36 40.98601 -75.48330 19747 ft 444 kts 108°
2026-04-24 19:36 40.97530 -75.44508 19250 ft 441 kts 108°
2026-04-24 19:37 40.96468 -75.40719 18817 ft 438 kts 108°
2026-04-24 19:37 40.95405 -75.36936 18282 ft 438 kts 108°
2026-04-24 19:37 40.94347 -75.33176 17819 ft 433 kts 108°
2026-04-24 19:37 40.93299 -75.29455 17058 ft 431 kts 108°
2026-04-24 19:38 40.92272 -75.25815 16423 ft 426 kts 108°
2026-04-24 19:38 40.91238 -75.22156 15743 ft 422 kts 107°
2026-04-24 19:38 40.90212 -75.18533 15044 ft 419 kts 108°
2026-04-24 19:38 40.89195 -75.14944 14468 ft 414 kts 108°
2026-04-24 19:39 40.88190 -75.11393 13851 ft 410 kts 107°
2026-04-24 19:39 40.87200 -75.07881 13244 ft 406 kts 107°
2026-04-24 19:39 40.86216 -75.04397 12573 ft 403 kts 107°
2026-04-24 19:39 40.85236 -75.00929 11838 ft 403 kts 107°
2026-04-24 19:40 40.84259 -74.97482 11184 ft 399 kts 107°
2026-04-24 19:40 40.83292 -74.94071 10577 ft 395 kts 107°
2026-04-24 19:40 40.82345 -74.90693 10136 ft 388 kts 106°
2026-04-24 19:40 40.81437 -74.87421 10050 ft 370 kts 109°
2026-04-24 19:41 40.80119 -74.84610 10062 ft 353 kts 133°
2026-04-24 19:41 40.78233 -74.82688 9962 ft 336 kts 156°
2026-04-24 19:41 40.76803 -74.81975 9671 ft 329 kts 171°
2026-04-24 19:41 40.74565 -74.81466 9212 ft 323 kts 177°
2026-04-24 19:42 40.72343 -74.81091 8751 ft 321 kts 178°
2026-04-24 19:42 40.70135 -74.80740 8386 ft 317 kts 178°
2026-04-24 19:42 40.67953 -74.80406 7966 ft 314 kts 178°
2026-04-24 19:42 40.65793 -74.80084 7578 ft 311 kts 178°
2026-04-24 19:43 40.63655 -74.79779 7176 ft 308 kts 178°
2026-04-24 19:43 40.61537 -74.79490 6816 ft 304 kts 178°
2026-04-24 19:43 40.59440 -74.79204 6393 ft 302 kts 178°
2026-04-24 19:43 40.57355 -74.78924 6007 ft 299 kts 175°
2026-04-24 19:44 40.55398 -74.78067 5670 ft 298 kts 148°
2026-04-24 19:44 40.53919 -74.76238 5422 ft 291 kts 124°
2026-04-24 19:44 40.52866 -74.73974 5153 ft 288 kts 118°
2026-04-24 19:44 40.51901 -74.71694 4987 ft 281 kts 118°
2026-04-24 19:45 40.50984 -74.69487 4975 ft 268 kts 118°
2026-04-24 19:45 40.50123 -74.67412 4971 ft 256 kts 118°
2026-04-24 19:45 40.49280 -74.65380 4958 ft 252 kts 118°
2026-04-24 19:45 40.48460 -74.63370 4818 ft 249 kts 113°
2026-04-24 19:46 40.47975 -74.61208 4590 ft 244 kts 99°
2026-04-24 19:46 40.47704 -74.59017 4312 ft 243 kts 98°
2026-04-24 19:46 40.47455 -74.56830 4024 ft 241 kts 97°
2026-04-24 19:46 40.47206 -74.54654 3719 ft 241 kts 98°
2026-04-24 19:47 40.46957 -74.52488 3462 ft 239 kts 98°
2026-04-24 19:47 40.46710 -74.50322 3173 ft 240 kts 98°
2026-04-24 19:47 40.46470 -74.48196 3111 ft 229 kts 98°
2026-04-24 19:47 40.46245 -74.46171 3065 ft 219 kts 97°
2026-04-24 19:48 40.46028 -74.44220 2951 ft 215 kts 97°
2026-04-24 19:48 40.45861 -74.42264 2942 ft 216 kts 87°
2026-04-24 19:48 40.46318 -74.38364 2996 ft 216 kts 78°
2026-04-24 19:49 40.46878 -74.34599 3008 ft 200 kts 77°
2026-04-24 19:49 40.47917 -74.31333 2973 ft 193 kts 57°
2026-04-24 19:50 40.50916 -74.28124 3000 ft 189 kts 24°
2026-04-24 19:50 40.52095 -74.27367 3021 ft 188 kts 23°
2026-04-24 19:51 40.54384 -74.25914 2959 ft 172 kts 24°
2026-04-24 19:51 40.55445 -74.25239 2934 ft 168 kts 23°
2026-04-24 19:52 40.57555 -74.23906 2466 ft 168 kts 24°
2026-04-24 19:52 40.58590 -74.23248 2180 ft 162 kts 24°
2026-04-24 19:52 40.59578 -74.22621 1919 ft 154 kts 25°
2026-04-24 19:52 40.60519 -74.22022 1722 ft 147 kts 25°
2026-04-24 19:53 40.61436 -74.21440 1478 ft 145 kts 25°
2026-04-24 19:53 40.62342 -74.20865 1318 ft 145 kts 26°
2026-04-24 19:53 40.64156 -74.19712 888 ft 145 kts 27°
2026-04-24 19:54 40.65068 -74.19134 700 ft 146 kts 27°
2026-04-24 19:54 40.66009 -74.18565 497 ft 150 kts 30°
2026-04-24 19:54 40.66941 -74.17955 283 ft 150 kts 30°
2026-04-24 19:54 40.67879 -74.17348 70 ft 150 kts 29°
2026-04-24 19:55 40.68486 -74.16969 29 ft 138 kts 29°
2026-04-24 19:55 40.69272 -74.16468 26 ft 45 kts 17°
2026-04-24 19:55 40.69517 -74.16461 25 ft 26 kts 356°
2026-04-24 19:55 40.69606 -74.16510 24 ft 12 kts 296°
2026-04-24 19:56 40.69649 -74.16625 25 ft 17 kts 295°
2026-04-24 19:56 40.69681 -74.16759 26 ft 14 kts 257°
2026-04-24 19:56 40.69634 -74.16885 24 ft 17 kts 218°
2026-04-24 19:56 40.69519 -74.16966 24 ft 21 kts 206°
2026-04-24 19:57 40.69371 -74.17061 24 ft 27 kts 206°
2026-04-24 19:57 40.69179 -74.17183 24 ft 33 kts 206°
2026-04-24 19:57 40.68962 -74.17321 24 ft 35 kts 205°
2026-04-24 19:57 40.68743 -74.17460 25 ft 30 kts 206°
2026-04-24 19:58 40.68620 -74.17541 25 ft 14 kts 221°
2026-04-24 19:58 40.68614 -74.17608 25 ft 7 kts 296°
2026-04-24 19:58 40.68651 -74.17716 26 ft 16 kts 288°
2026-04-24 19:58 40.68692 -74.17842 25 ft 12 kts 323°
2026-04-24 19:59 40.68767 -74.17845 25 ft 11 kts
2026-04-24 19:59 40.68801 -74.17830 25 ft 2 kts 50°
2026-04-24 19:59 40.68803 -74.17814 25 ft 1 kts 103°
2026-04-24 19:59 40.68798 -74.17793 25 ft 3 kts 112°
2026-04-24 20:00 40.68793 -74.17780 25 ft 0 kts 114°